Temp
11 11 11 11 11 11 11 11 11 10 10 10 9 9 9 9 9 9 9 9 9 9 10 10 10 11 11 11 11 12 13 14 14 14 15 16 16 16 15 15 16 15 14 14 14 15 15
11 11 11 11 11 11 10 11 11 11 10 10 10 10 10 9 9 10 10 10 10 10 10 11 11 11 12 11 11 12 13 13 14 15 15 16 17 17 16 15 15 15 14 14 14 14 14
11 11 11 11 11 11 11 11 11 11 11 11 10 10 10 10 10 10 10 10 11 11 11 11 12 11 12 11 11 12 13 13 14 15 16 16 17 17 16 14 15 14 13 13 13 14 13
11 11 11 10 11 11 11 11 11 11 11 11 11 11 11 10 11 11 11 11 11 12 12 12 12 12 11 11 12 12 13 13 14 15 15 16 16 16 16 15 14 14 11 12 13 13 13
11 11 11 11 11 11 11 11 11 11 11 11 11 11 11 11 11 11 11 12 12 12 12 12 12 12 11 11 12 12 12 13 14 14 15 15 16 15 14 11 11 11 13 12 13 13 13
11 11 11 11 11 11 11 11 11 11 11 11 11 12 12 12 11 12 12 12 12 12 12 12 12 12 11 12 12 12 12 13 14 14 15 15 15 9 8 9 10 12 13 13 14 13 13
11 11 11 11 11 11 11 11 11 12 11 11 11 12 12 12 12 12 12 12 12 13 12 12 12 12 12 12 12 12 12 13 14 14 11 13 11 11 11 11 13 14 15 15 13 13 13
11 11 11 11 11 11 11 11 11 11 12 11 12 12 12 12 12 12 12 12 12 13 11 11 12 12 12 12 12 12 13 13 13 11 12 10 11 12 12 13 14 14 15 13 13 13 12
12 12 11 11 11 11 11 12 11 11 12 12 12 12 12 12 12 12 12 12 12 12 11 12 12 12 12 12 12 12 13 13 13 13 12 10 12 12 13 13 13 11 12 12 13 12 12
10 11 11 10 10 11 11 11 12 11 11 12 12 12 12 12 12 12 12 12 12 12 6 12 11 12 12 12 12 12 13 13 13 10 10 11 12 12 13 12 12 13 11 12 12 11 12
6 8 9 10 9 10 11 11 11 12 12 12 12 12 12 12 12 12 12 13 12 12 7 12 11 12 12 12 12 12 13 14 12 12 11 11 11 12 13 12 12 12 11 11 11 9 10
4 4 6 7 8 7 9 11 11 11 12 12 12 12 12 12 12 12 13 13 12 6 7 11 11 11 11 12 12 12 12 13 13 11 9 10 11 11 11 10 10 9 10 8 7 6 7
4 4 4 5 6 6 7 8 10 10 11 12 12 12 11 12 12 12 12 12 6 5 12 11 10 10 11 11 11 11 11 10 10 9 10 9 10 10 10 10 10 10 8 7 8 6 8
5 4 4 4 4 5 5 6 8 10 10 11 12 11 12 12 12 12 11 8 9 11 10 11 11 11 11 11 11 11 10 10 10 10 6 6 9 9 10 10 9 9 9 6 10 8 8
5 5 5 5 4 4 5 5 6 8 9 10 11 12 11 12 11 11 11 4 8 9 11 10 12 11 11 11 11 11 9 9 9 8 10 9 10 9 9 9 10 10 8 9 7 6 7
5 5 5 5 5 5 5 5 5 6 7 9 10 11 11 11 11 11 7 8 9 11 10 11 10 10 8 9 10 9 8 10 10 9 10 10 9 9 8 9 9 9 9 8 4 7 9
2 5 5 5 5 5 5 5 5 5 7 8 9 9 10 9 9 10 5 6 9 12 12 11 10 9 10 9 8 9 10 11 10 9 10 9 9 7 9 7 7 7 7 7 5 6 7
0 2 5 5 5 5 4 5 4 5 6 7 8 6 9 8 7 6 5 7 12 10 11 11 11 11 10 9 9 9 10 10 10 10 9 10 6 4 8 8 8 8 7 7 6 8 5
-0 -1 0 4 5 4 4 4 4 4 5 6 8 8 7 7 5 4 7 10 10 8 8 8 9 10 11 9 11 10 9 9 10 9 8 8 5 3 7 7 7 7 7 6 3 3 5
-0 -1 -0 0 3 4 4 4 4 4 4 5 6 4 6 6 6 6 8 8 9 10 9 9 10 10 10 11 11 8 7 8 9 9 9 9 5 7 8 9 6 7 6 6 5 2 4
-1 -1 -1 -0 0 2 4 4 4 4 4 4 5 4 6 3 4 5 7 9 8 8 9 10 9 9 9 9 9 9 7 7 8 8 7 7 4 6 7 8 8 8 8 6 3 6 5
-1 -1 -1 -0 -0 0 1 3 4 4 3 3 4 4 5 5 6 4 6 7 8 8 7 8 8 8 8 8 9 8 6 6 7 6 6 4 2 -1 0 6 5 6 6 6 5 6 5
-1 -1 -1 -0 -0 -0 0 0 2 3 3 3 4 5 5 5 4 4 4 7 8 8 9 9 8 8 7 8 9 9 9 9 7 5 4 4 1 1 5 5 4 2 4 6 6 5 6
-2 -2 -2 -1 -1 -0 -0 -0 0 2 2 3 4 5 4 3 4 5 8 7 8 8 9 8 8 8 8 9 8 9 8 6 6 4 5 2 2 2 1 2 3 7 6 6 4 3 2
-3 -3 -3 -2 -1 -1 -1 -1 -0 0 1 1 2 3 4 2 4 5 6 7 7 7 7 6 6 8 8 9 5 5 4 7 4 1 3 3 3 2 2 2 4 5 5 4 5 2 2
-4 -3 -3 -3 -2 -2 -1 -1 -1 0 0 0 1 2 2 3 4 7 7 7 5 5 5 3 5 6 7 5 5 5 3 5 3 3 1 3 4 4 1 2 3 5 4 5 5 3 1
-4 -4 -4 -3 -2 -2 -1 -1 -1 -0 0 0 0 1 1 0 3 4 4 4 7 5 3 3 4 5 5 4 4 3 4 4 3 2 1 2 3 5 4 4 3 3 3 5 3 3 1
-4 -4 -4 -4 -3 -3 -2 -1 -1 -0 -0 0 -0 -0 0 -0 0 2 3 4 4 5 3 3 4 3 2 4 4 3 3 4 4 3 2 3 3 3 3 3 3 3 3 4 2 1 1
-4 -4 -4 -4 -4 -3 -3 -2 -1 -1 1 -0 -0 -0 -1 -1 -1 -0 0 1 2 1 3 3 4 2 3 2 1 2 3 0 3 3 3 3 4 3 3 4 2 3 3 2 3 2 1
Height
1539 1536 1533 1529 1526 1522 1518 1516 1514 1511 1509 1509 1507 1504 1504 1502 1501 1500 1498 1499 1500 1498 1497 1498 1499 1501 1503 1504 1503 1503 1503 1505 1509 1512 1515 1514 1520 1522 1525 1524 1527 1528 1528 1529 1530 1531 1532
1540 1536 1533 1530 1526 1522 1519 1516 1513 1511 1509 1507 1506 1504 1502 1502 1501 1500 1499 1498 1499 1499 1499 1499 1501 1502 1503 1504 1502 1503 1504 1504 1506 1508 1510 1513 1520 1522 1523 1525 1527 1527 1527 1530 1531 1532 1533
1540 1537 1534 1530 1527 1524 1520 1516 1513 1510 1509 1506 1506 1504 1502 1502 1501 1500 1499 1498 1499 1499 1499 1500 1501 1501 1501 1503 1502 1503 1504 1507 1507 1509 1512 1517 1520 1521 1522 1525 1526 1528 1531 1531 1532 1532 1532
1541 1538 1535 1531 1527 1524 1521 1518 1514 1510 1507 1506 1504 1504 1503 1501 1501 1500 1499 1499 1499 1499 1499 1501 1500 1500 1501 1502 1503 1504 1504 1508 1509 1512 1515 1518 1518 1519 1521 1524 1527 1530 1533 1538 1532 1531 1532
1542 1538 1535 1532 1528 1525 1521 1518 1515 1511 1507 1504 1504 1502 1502 1501 1500 1500 1499 1498 1498 1499 1499 1500 1500 1500 1502 1503 1504 1504 1506 1507 1507 1510 1512 1515 1517 1518 1522 1529 1537 1536 1539 1538 1534 1530 1532
1542 1539 1535 1532 1528 1526 1522 1517 1515 1511 1507 1504 1502 1501 1501 1500 1500 1499 1499 1499 1499 1499 1500 1500 1500 1503 1503 1503 1503 1505 1507 1507 1507 1508 1511 1514 1516 1521 1528 1533 1550 1537 1536 1532 1532 1532 1532
1541 1538 1535 1532 1528 1525 1523 1518 1514 1511 1507 1504 1501 1500 1500 1499 1499 1499 1499 1500 1503 1501 1499 1499 1499 1499 1500 1502 1503 1505 1506 1506 1507 1510 1513 1515 1521 1528 1526 1525 1523 1523 1525 1526 1531 1530 1532
1539 1537 1534 1531 1529 1525 1521 1519 1514 1510 1507 1504 1501 1499 1499 1499 1499 1499 1499 1498 1498 1499 1499 1499 1498 1499 1501 1502 1505 1505 1505 1506 1507 1512 1511 1519 1523 1521 1521 1522 1522 1522 1525 1532 1531 1530 1533
1536 1535 1532 1529 1526 1525 1521 1516 1515 1510 1507 1504 1501 1499 1498 1498 1498 1498 1498 1498 1497 1497 1498 1500 1500 1500 1502 1504 1503 1503 1504 1504 1505 1509 1511 1519 1520 1519 1521 1524 1525 1530 1529 1531 1531 1531 1531
1534 1531 1529 1527 1525 1522 1520 1517 1512 1510 1506 1503 1501 1499 1497 1496 1500 1496 1496 1496 1497 1498 1509 1501 1500 1500 1501 1501 1502 1502 1502 1504 1505 1513 1514 1517 1518 1519 1522 1525 1524 1527 1529 1529 1531 1535 1541
1530 1527 1525 1523 1522 1519 1516 1514 1511 1507 1505 1502 1500 1498 1497 1495 1495 1495 1496 1496 1497 1499 1533 1499 1499 1499 1499 1501 1501 1501 1502 1502 1505 1508 1512 1519 1519 1520 1522 1523 1523 1527 1528 1531 1533 1540 1541
1527 1524 1522 1519 1517 1516 1513 1510 1508 1506 1503 1500 1498 1496 1495 1495 1494 1494 1495 1496 1498 1518 1526 1497 1495 1497 1498 1498 1499 1500 1501 1502 1504 1508 1513 1518 1519 1520 1521 1523 1524 1527 1532 1538 1543 1548 1558
1524 1521 1518 1516 1513 1511 1509 1506 1503 1502 1500 1498 1495 1494 1493 1492 1493 1493 1494 1496 1516 1529 1493 1496 1494 1494 1495 1497 1499 1498 1501 1503 1508 1521 1519 1521 1521 1521 1521 1524 1526 1528 1538 1558 1555 1565 1552
1519 1516 1514 1511 1509 1506 1505 1502 1499 1497 1496 1494 1492 1491 1490 1490 1490 1492 1494 1498 1512 1492 1493 1487 1488 1492 1496 1495 1497 1498 1501 1505 1502 1505 1524 1532 1533 1522 1520 1521 1525 1530 1533 1552 1552 1555 1549
1509 1510 1507 1506 1503 1503 1499 1498 1494 1491 1491 1490 1488 1488 1488 1487 1488 1490 1493 1516 1496 1486 1481 1486 1489 1493 1495 1493 1495 1496 1501 1502 1498 1499 1510 1519 1517 1520 1519 1520 1523 1526 1537 1530 1545 1553 1552
1500 1499 1500 1499 1498 1497 1494 1490 1491 1487 1485 1486 1484 1484 1484 1484 1485 1487 1492 1492 1482 1475 1476 1480 1487 1488 1497 1495 1496 1498 1500 1492 1494 1495 1495 1503 1520 1520 1521 1521 1523 1523 1526 1539 1552 1553 1543
1491 1490 1491 1490 1490 1488 1489 1485 1485 1483 1481 1480 1482 1480 1478 1481 1484 1484 1493 1486 1473 1471 1473 1477 1480 1485 1486 1490 1493 1495 1492 1490 1490 1495 1495 1500 1508 1526 1521 1523 1523 1528 1530 1533 1538 1541 1545
1487 1479 1475 1478 1479 1481 1481 1481 1478 1478 1478 1477 1477 1478 1475 1477 1484 1478 1477 1472 1467 1468 1469 1472 1474 1474 1479 1482 1487 1491 1489 1487 1487 1490 1497 1498 1511 1534 1518 1517 1518 1518 1520 1524 1538 1534 1545
1482 1477 1468 1464 1466 1470 1472 1475 1473 1473 1472 1472 1471 1472 1472 1474 1480 1477 1467 1463 1465 1468 1469 1469 1472 1471 1472 1476 1481 1481 1484 1486 1486 1488 1494 1497 1516 1538 1521 1522 1518 1517 1515 1520 1530 1535 1535
1479 1473 1469 1459 1458 1462 1463 1466 1469 1467 1467 1468 1468 1469 1468 1471 1466 1464 1465 1463 1461 1462 1464 1465 1465 1466 1470 1472 1474 1482 1485 1485 1486 1487 1488 1491 1505 1505 1511 1503 1510 1514 1513 1516 1519 1545 1530
1478 1471 1468 1460 1457 1452 1456 1458 1461 1462 1463 1465 1460 1459 1456 1465 1462 1461 1458 1456 1458 1459 1461 1463 1465 1462 1464 1473 1475 1477 1483 1487 1486 1487 1490 1493 1507 1505 1504 1503 1504 1504 1505 1513 1522 1511 1520
1475 1468 1465 1460 1455 1447 1447 1448 1453 1455 1457 1458 1454 1455 1454 1453 1452 1455 1457 1454 1453 1453 1457 1459 1461 1458 1461 1464 1461 1470 1474 1480 1480 1488 1490 1493 1512 1518 1521 1506 1508 1508 1507 1507 1510 1507 1510
1471 1467 1464 1459 1452 1448 1445 1444 1445 1448 1447 1447 1450 1451 1452 1448 1448 1451 1449 1446 1446 1447 1449 1450 1452 1457 1462 1459 1459 1459 1461 1463 1467 1477 1488 1494 1508 1517 1509 1507 1511 1519 1501 1496 1496 1499 1499
1471 1466 1462 1456 1448 1447 1446 1443 1441 1442 1442 1442 1444 1447 1447 1447 1446 1443 1441 1442 1443 1444 1445 1448 1449 1453 1457 1457 1462 1464 1466 1468 1473 1477 1478 1492 1499 1507 1520 1514 1522 1487 1488 1489 1495 1501 1502
1469 1463 1460 1452 1449 1450 1445 1442 1438 1436 1437 1437 1438 1440 1441 1443 1440 1439 1441 1440 1440 1442 1445 1446 1448 1449 1453 1458 1467 1474 1482 1477 1480 1484 1483 1483 1490 1507 1512 1516 1497 1490 1490 1493 1489 1505 1504
1468 1462 1457 1455 1451 1448 1442 1439 1436 1433 1432 1431 1433 1434 1435 1436 1431 1435 1437 1436 1438 1442 1446 1447 1449 1449 1453 1457 1464 1473 1483 1475 1485 1485 1484 1484 1485 1490 1511 1510 1500 1485 1486 1487 1488 1501 1503
1466 1461 1456 1451 1448 1443 1440 1436 1433 1429 1427 1424 1426 1428 1431 1432 1430 1430 1431 1433 1433 1435 1442 1446 1448 1452 1452 1457 1464 1471 1469 1467 1477 1483 1489 1490 1490 1484 1491 1490 1487 1482 1484 1486 1499 1498 1499
1461 1457 1452 1449 1444 1439 1434 1431 1427 1423 1420 1419 1419 1422 1425 1426 1428 1427 1427 1429 1430 1430 1437 1442 1447 1450 1455 1459 1460 1461 1464 1463 1466 1468 1474 1477 1482 1488 1490 1490 1488 1479 1484 1489 1490 1495 1499
1458 1454 1451 1446 1441 1436 1431 1425 1419 1415 1408 1412 1415 1417 1419 1423 1425 1425 1426 1427 1427 1429 1431 1434 1436 1439 1442 1450 1454 1455 1459 1465 1460 1467 1466 1470 1467 1475 1478 1476 1476 1480 1480 1484 1489 1493 1498
Wind_Speed
20 20 21 21 22 20 16 14 8 5 5 2 1 1 1 2 3 2 3 3 4 4 4 11 16 14 7 3 3 6 8 13 18 18 18 15 15 5 4 4 4 2 3 4 4 3 5
20 20 19 20 20 22 20 14 13 7 4 4 3 2 1 2 2 2 2 3 4 6 7 14 15 8 3 1 5 7 10 13 16 16 17 15 10 5 7 3 3 3 5 5 2 1 2
17 19 20 19 20 21 21 18 13 11 6 3 3 3 2 2 3 2 1 4 4 6 11 13 10 7 4 5 8 9 11 13 16 17 19 17 12 6 8 4 6 10 4 3 2 3 1
15 16 18 20 19 20 20 20 17 12 10 5 3 3 3 1 1 1 2 4 5 7 9 10 6 4 3 7 8 10 12 12 15 15 16 14 10 9 3 11 4 3 4 2 2 5 1
15 15 15 17 20 20 19 20 19 15 12 7 5 4 3 2 1 1 2 5 7 8 10 7 5 3 5 5 5 10 9 10 12 13 14 13 10 5 6 5 4 4 3 3 3 7 2
14 14 16 16 16 19 20 18 19 17 13 10 5 3 3 2 1 2 4 7 8 8 7 6 5 3 5 4 7 9 10 12 8 16 13 5 3 4 3 3 5 5 3 3 3 4 3
20 17 14 15 16 15 18 20 18 19 14 13 6 3 2 2 2 3 8 6 4 2 3 2 4 4 7 8 7 7 10 12 12 5 4 2 5 5 7 5 4 3 3 3 1 2 2
21 21 20 15 15 15 14 17 19 17 18 13 10 2 2 3 4 7 3 3 3 5 6 5 6 7 8 5 4 6 9 4 4 4 5 5 2 3 3 2 3 2 3 2 1 2 2
21 23 22 21 17 15 15 13 15 17 15 14 10 4 0 3 5 5 4 3 7 4 3 2 3 4 5 6 3 5 6 5 4 4 3 6 2 3 2 1 4 2 3 3 3 1 2
22 21 22 21 21 20 15 15 13 13 15 13 10 7 1 3 4 5 2 6 5 0 4 3 3 4 6 5 2 4 5 3 2 5 5 5 2 3 3 2 2 3 2 3 3 3 3
22 21 20 22 21 20 21 16 14 14 12 13 8 7 4 5 3 6 6 3 1 2 3 3 4 6 6 3 8 2 5 2 4 4 5 4 4 3 3 3 0 3 3 3 2 3 3
23 21 20 19 19 21 19 20 16 14 14 10 10 6 5 4 6 6 7 4 4 6 5 4 5 6 4 3 3 5 2 4 6 5 6 3 1 1 3 2 3 5 5 6 4 3 1
26 24 21 20 18 18 20 17 18 16 13 13 9 8 6 5 4 7 8 4 5 4 0 5 5 5 4 4 3 4 4 4 5 5 2 3 1 1 2 4 2 2 5 2 3 3 5
30 27 25 24 22 19 19 20 17 16 14 12 12 8 8 6 5 7 9 4 3 4 6 1 4 4 5 6 3 4 5 4 3 4 4 6 4 6 3 2 5 5 5 5 6 3 4
35 33 27 26 25 23 21 22 20 16 15 12 10 10 11 10 9 10 6 3 8 7 6 8 3 3 4 3 4 3 6 5 8 9 6 6 2 1 2 1 2 4 3 3 6 3 3
41 37 33 30 28 24 21 22 23 17 13 13 9 8 14 10 12 11 3 6 5 3 6 3 9 5 8 6 6 6 8 4 6 5 1 6 4 1 1 1 2 1 3 3 3 3 4
27 36 37 34 30 26 22 18 20 17 12 10 7 4 7 13 13 8 4 7 5 6 6 6 8 6 6 7 7 5 5 1 3 4 3 4 4 2 2 5 7 2 1 3 4 4 4
34 20 28 38 33 29 24 18 13 16 10 7 5 1 9 15 4 4 4 6 4 6 5 2 3 4 8 8 7 5 9 3 11 11 7 3 5 4 4 1 2 4 6 6 4 5 2
37 43 33 12 33 29 24 20 14 12 8 6 5 4 11 20 4 4 5 4 5 4 4 7 7 6 3 7 5 5 5 2 9 6 8 6 0 3 5 4 1 4 5 4 5 3 6
37 43 39 29 16 28 23 22 18 13 9 7 4 1 6 14 7 5 4 5 5 8 4 5 4 5 4 4 2 6 4 4 5 5 7 7 4 5 7 4 5 5 5 5 6 4 3
26 31 32 35 28 14 20 22 21 17 12 8 7 5 5 4 6 5 5 5 5 6 5 9 3 6 7 6 4 6 3 2 3 6 3 4 6 5 3 2 2 4 4 7 7 7 7
24 24 27 26 26 20 12 8 17 21 17 13 5 4 4 3 4 7 7 6 9 4 8 5 5 8 7 7 9 10 9 6 6 3 5 1 3 3 3 2 5 5 6 9 8 7 8
27 25 25 24 24 22 16 11 10 12 20 13 13 14 3 4 2 5 5 7 8 8 9 7 13 5 7 6 2 1 9 14 11 9 6 7 6 3 4 2 1 3 13 16 6 4 6
26 25 28 26 23 23 22 15 13 14 7 20 15 10 7 4 4 4 3 7 7 7 6 4 5 6 5 18 18 15 18 15 10 6 6 7 6 3 2 3 3 1 2 3 6 4 3
26 27 25 28 26 25 23 22 18 14 18 12 20 15 9 3 6 5 7 4 4 5 3 6 3 9 22 9 4 4 4 3 3 5 4 0 5 3 4 4 5 2 4 6 5 2 1
26 25 26 25 24 26 25 24 21 21 17 21 19 22 9 2 6 15 5 9 5 4 3 2 8 19 15 3 3 6 6 5 5 1 5 3 2 3 3 5 7 2 3 5 5 2 9
24 26 25 26 27 22 24 26 22 21 19 21 19 18 20 4 4 4 4 6 6 5 3 4 8 5 4 2 3 4 5 5 6 8 6 3 1 10 6 4 5 4 8 6 5 4 14
24 24 26 24 25 24 24 25 26 26 22 24 26 19 24 9 5 5 5 5 6 9 5 9 6 0 3 3 4 4 3 6 4 6 6 7 8 3 3 4 7 13 5 7 7 18 15
23 23 24 23 25 25 26 26 25 27 16 24 24 21 19 9 4 11 10 8 8 8 6 15 4 5 8 3 1 3 2 1 4 4 3 3 5 6 5 2 4 13 9 18 16 18 11
Wind_Direction
27 30 25 24 19 20 21 5 358 341 348 39 33 137 158 123 103 13 41 63 115 122 150 159 158 147 149 161 147 159 172 170 165 171 174 161 172 179 188 173 142 113 152 103 125 134 118
15 19 27 21 22 17 17 16 4 350 335 323 319 309 327 326 323 319 1 87 103 124 153 158 157 154 169 122 131 141 157 165 165 165 166 171 188 164 129 135 144 139 121 122 146 182 122
16 12 11 22 18 18 15 15 11 3 338 316 296 288 283 313 318 325 48 103 101 127 152 164 157 145 138 129 136 129 143 168 170 171 173 177 169 170 147 116 117 130 86 25 217 197 107
9 10 8 7 15 16 15 13 9 7 1 319 297 284 279 265 314 342 106 104 119 137 152 155 137 126 102 139 145 141 132 164 170 174 180 179 161 134 108 122 65 86 56 72 272 158 162
359 0 5 4 2 7 12 12 12 4 3 349 304 289 287 285 187 142 127 129 126 137 150 150 121 129 125 145 153 155 153 151 150 158 159 155 152 105 113 95 38 5 177 189 286 205 116
353 355 353 356 2 359 360 9 7 10 1 358 329 292 284 284 224 151 141 140 137 137 144 138 131 120 165 165 143 157 165 146 124 133 121 130 96 79 49 94 202 187 195 211 210 221 181
340 342 349 346 349 357 355 354 5 3 7 3 349 299 274 247 208 170 149 153 166 127 177 157 147 121 136 137 133 152 152 136 134 149 124 94 92 186 205 199 178 139 175 144 295 199 169
333 333 334 338 339 342 351 351 352 3 0 4 1 328 250 204 193 184 201 218 214 146 108 102 115 124 147 148 137 157 155 153 158 130 116 42 170 192 156 195 163 126 131 117 23 179 164
325 325 326 327 329 332 334 344 348 350 360 352 1 2 199 199 190 199 234 243 160 139 91 153 158 156 164 170 163 166 165 148 125 110 128 135 150 145 173 91 125 47 154 171 164 315 244
323 319 317 318 321 321 325 328 334 344 347 354 342 346 305 184 202 205 197 145 153 48 75 202 219 192 171 169 88 149 156 143 82 136 121 101 157 154 152 142 126 158 174 109 78 67 223
323 321 317 311 314 315 315 319 322 326 338 339 337 330 312 214 216 199 169 142 105 121 45 189 170 168 173 183 145 87 145 115 122 117 105 216 144 152 167 154 90 166 118 103 101 91 47
312 318 321 319 312 315 311 309 313 315 318 331 325 307 300 262 233 204 178 146 119 46 260 182 147 176 144 176 163 133 135 100 117 80 37 109 104 98 150 96 63 128 81 43 52 76 20
296 299 305 310 312 310 311 305 300 305 305 310 318 291 278 245 225 202 169 154 39 137 108 195 192 164 188 165 173 166 163 154 150 104 185 26 2 336 140 96 57 97 80 359 354 7 219
285 284 288 292 299 304 307 310 297 291 295 297 299 283 253 247 196 178 160 61 155 212 201 169 144 127 180 163 199 166 135 169 238 102 118 146 297 178 176 178 173 179 157 156 209 201 249
274 274 274 279 284 290 298 304 302 287 285 284 289 281 259 223 196 173 167 85 208 200 166 149 66 140 223 208 153 145 192 202 202 177 154 151 171 92 87 94 113 184 181 168 103 11 45
273 266 267 268 273 277 284 302 303 288 284 282 285 267 257 220 198 178 101 226 227 219 131 133 179 160 182 200 161 174 186 203 186 190 152 200 102 232 136 113 38 138 159 70 357 148 245
332 268 264 264 264 264 269 286 300 290 280 276 267 248 217 194 182 168 184 231 213 206 183 161 198 164 191 177 176 193 205 286 163 149 124 137 100 268 88 200 179 133 206 65 122 150 176
325 346 267 260 254 257 256 267 283 293 281 249 206 232 190 175 184 219 178 198 203 179 162 154 156 186 182 166 168 213 203 245 169 150 161 179 122 164 187 237 229 193 187 159 138 215 177
316 332 345 335 249 245 244 251 260 278 269 224 210 226 187 182 191 234 260 192 198 152 208 172 203 207 212 172 166 174 156 179 166 145 159 182 164 68 353 356 350 212 194 132 106 65 198
316 323 333 346 355 246 240 239 247 256 266 226 207 191 184 207 249 184 191 229 196 202 189 199 177 139 137 172 331 164 148 190 160 144 152 134 151 167 189 190 135 191 194 166 139 134 191
329 325 326 327 331 358 234 242 238 242 244 237 199 230 197 202 253 228 175 190 174 184 205 192 228 206 166 161 135 167 130 94 49 146 85 125 176 167 218 239 194 199 171 178 192 201 189
323 331 321 328 319 336 344 225 227 233 230 227 205 214 192 243 240 176 197 228 195 169 158 222 216 206 191 165 186 189 142 180 183 180 151 62 171 92 309 212 224 242 238 233 216 233 255
322 319 332 326 330 321 324 306 239 234 225 218 231 245 245 244 223 148 209 209 209 160 210 201 210 134 200 216 197 246 175 177 159 148 154 143 136 114 241 54 215 317 217 217 216 183 182
335 329 324 332 343 332 319 321 290 258 252 225 206 200 182 254 206 204 222 198 213 210 199 166 170 145 155 139 107 84 69 94 95 42 136 142 127 115 170 23 294 313 62 218 134 49 81
330 334 335 331 322 335 324 314 310 293 256 274 242 212 197 236 215 241 243 220 138 126 101 148 145 156 148 124 84 77 3 33 28 32 13 41 134 139 150 202 318 221 192 149 165 185 221
333 327 329 332 326 317 334 317 307 293 291 254 255 239 214 172 229 218 200 197 165 153 108 83 139 153 161 113 130 165 187 178 211 85 359 63 29 132 148 179 219 210 167 133 109 248 179
325 332 330 325 329 314 330 320 308 306 292 261 245 249 216 225 263 190 176 198 196 137 115 134 156 147 157 110 140 169 209 166 170 172 169 121 144 209 204 228 284 196 156 139 125 214 151
325 327 332 329 326 323 325 320 303 298 296 254 236 232 210 202 223 210 182 179 172 173 150 158 104 78 83 182 170 187 167 207 149 154 174 162 162 185 174 208 258 149 111 169 133 133 142
318 323 324 327 329 333 321 326 311 299 253 224 225 221 206 218 207 199 180 172 175 169 147 167 139 152 166 127 203 110 166 100 147 205 172 184 169 173 186 219 100 161 134 135 144 145 149